[[{"header":{"parameterUnit":"m.s-1","parameterCategory":1,"la1":30.2991,"la2":30.254,"lo1":-89.0895,"lo2":-89.0444,"dy":0.0017,"dx":0.0017,"nx":28,"ny":28,"refTime":"2023-10-14T09:00:00:Z","depth":0,"parameterNumber":2,"parameterNumberName":"U-component_of_WINDS"},"data":[0,0,0,0,0,0,0,0,0,0,0,0,0,0,0,0,0,0,0,0,0,0,0,0,0,0,0,0,0,0,0,0,0,0,0,0,0,0,0,0,0,0,0,0,0,0,0,0,0,0,0,0,0,0,0,0,0,0,2.9829,2.9829,0,2.9859,2.9859,2.9859,2.9824,2.9822,2.9821,2.982,2.9849,2.9851,2.9853,0,0,0,0,0,0,0,0,0,0,0,0,0,2.9741,2.9742,2.9829,2.9829,2.983,2.9859,2.9859,2.9859,2.9824,2.9822,2.9821,2.9819,2.9848,2.9851,2.9853,0,0,0,0,0,0,0,0,0,0,0,0,0,2.9776,2.9743,2.9829,2.9815,2.9814,2.9859,2.9859,2.986,2.9824,2.9822,2.982,2.9818,2.9847,2.985,2.9853,2.9912,0,0,2.9863,2.9864,0,0,0,0,0,0,0,0,2.9774,2.9779,2.9817,2.9816,2.9815,2.9835,2.9839,2.9877,2.9825,2.982,2.982,2.9817,2.9846,2.9849,2.9859,2.9913,2.9914,2.9863,2.9865,2.9866,2.9867,0,0,0,0,0,0,0,2.9771,2.9777,2.9841,2.9818,2.9817,2.9808,2.981,2.9846,2.9844,2.9821,2.9818,2.9822,2.9845,2.9856,2.9859,2.9915,2.9863,2.9865,2.9867,2.9869,3.002,3.0022,0,0,0,0,0,0,2.977,2.9776,2.984,2.9841,2.9789,2.9811,2.9814,2.9831,2.9843,2.9843,2.9824,2.982,2.9852,2.9856,2.986,2.993,2.9866,2.9869,2.9871,3.0018,3.002,3.0023,0,0,0,0,0,0,2.9769,2.9777,2.9838,2.9808,2.9815,2.9815,2.9834,2.9833,2.9843,2.9846,2.9845,2.9835,2.985,2.9856,2.99,2.993,2.987,2.9873,3.0015,3.0018,3.0021,3.0069,0,0,0,0,0,0,2.9766,2.9776,2.9798,2.9809,2.9817,2.9877,2.9836,2.9835,2.9849,2.9845,2.9857,2.9857,2.9849,2.9895,2.9903,2.9933,2.9875,3.0012,3.0016,3.002,3.0065,3.0074,3.0081,0,0,0,0,0,2.9763,2.981,2.98,2.9807,2.9845,2.9879,2.9884,2.9875,2.9852,2.9874,2.9876,2.9856,2.9926,2.99,2.9908,2.994,3.001,3.0015,3.002,3.0061,3.0072,3.0081,0,0,0,0,0,0,2.9802,2.9811,2.9799,2.9851,2.9865,2.9873,2.9901,2.9887,2.9907,2.9902,2.989,2.9893,2.9939,2.9944,2.9915,2.9998,2.9964,2.9971,2.9993,3.0003,3.0011,3.0009,2.9878,0,0,0,0,0,2.9817,2.9845,2.9851,2.9896,2.9903,2.9901,2.9916,2.9908,2.9922,2.9927,2.9932,2.9946,2.9971,2.9987,3.001,3.0066,3.0068,3.0092,3.01,3.0107,3.0113,3.0143,3.0154,3.0039,3.0039,3.0039,0,0,2.9847,2.9856,2.9874,2.9904,2.9914,2.9942,2.9906,2.9938,2.9959,2.9932,2.9973,2.9978,2.9992,3.0042,3.0065,3.0048,3.0145,3.0113,3.0119,3.0121,3.0149,3.016,3.017,3.0042,3.0042,3.0041,0,0,2.9917,2.9927,2.9965,2.9976,2.9992,2.999,3.0,3.0011,3.0013,3.0055,3.0035,3.006,3.0103,3.0115,3.0126,3.0203,3.0186,3.0211,3.0254,3.0283,3.0292,3.03,3.0328,3.0338,3.0217,3.0217,3.0217,0,2.9953,2.9996,2.9987,3.0021,3.0034,3.0012,3.0051,3.0062,3.0084,3.0095,3.0076,3.0131,3.0139,3.0191,3.021,3.022,3.0231,3.0209,3.0292,3.03,3.0307,3.0333,3.0343,3.022,3.022,3.0219,3.0219,0,3.0039,3.0069,3.0099,3.0122,3.0139,3.0175,3.0172,3.0191,3.0182,3.0183,3.0226,3.0235,3.026,3.0273,3.0264,3.0325,3.0314,3.0294,3.0259,3.0321,3.0345,3.0355,3.0224,3.0223,3.0222,3.0221,0,0,3.0132,3.0151,3.0162,3.0173,3.0189,3.0212,3.0248,3.0273,3.029,3.0307,3.0336,3.0374,3.0357,3.037,3.0362,3.0389,3.0449,3.0365,3.0366,3.038,3.0517,3.0531,3.0543,3.0439,3.044,3.0442,3.0515,0,3.0202,3.0264,3.0258,3.0317,3.0345,3.0325,3.0357,3.037,3.0372,3.0397,3.0399,3.0426,3.04,3.0408,3.0433,3.0436,3.0476,3.0431,3.0466,3.0467,3.0462,3.0555,3.057,3.0639,3.0525,3.0526,3.0528,0,3.0292,3.0313,3.0375,3.0388,3.04,3.0428,3.0451,3.0475,3.049,3.049,3.0506,3.0494,3.053,3.0497,3.0546,3.0516,3.053,3.0534,3.0536,3.0538,3.05,3.0559,3.0661,3.0671,3.0542,3.0541,3.054,0,3.0353,3.0397,3.044,3.045,3.0467,3.0487,3.0495,3.0508,3.0524,3.0545,3.0555,3.058,3.0593,3.0612,3.0608,3.0583,3.0659,3.0624,3.0659,3.066,3.0675,3.0674,3.078,3.0686,3.0686,3.0685,3.0685,0,3.0432,3.047,3.0468,3.0495,3.0538,3.0531,3.0573,3.0579,3.0591,3.0619,3.0603,3.0629,3.0622,3.0648,3.0645,3.0687,3.0693,3.0694,3.0692,3.0695,3.0694,3.0703,3.0697,3.0688,3.0687,3.0687,3.0686,0,3.0507,3.0507,3.0553,3.0566,3.057,3.0601,3.0612,3.0637,3.0639,3.0673,3.0681,3.0683,3.0713,3.0711,3.0744,3.0742,3.0794,3.0787,3.0789,3.0787,3.0822,3.0819,3.0936,3.0951,3.0848,3.0849,3.085,0,3.0557,3.0586,3.0603,3.062,3.063,3.0658,3.0674,3.0669,3.0687,3.0708,3.0731,3.0759,3.0781,3.083,3.0834,3.086,3.0853,3.0893,3.0857,3.0859,3.0853,3.0851,3.0854,3.0899,3.0901,3.0902,3.0902,0,3.0645,3.0644,3.0668,3.0694,3.0714,3.0734,3.0752,3.0767,3.0764,3.0785,3.0815,3.0833,3.0867,3.0896,3.0921,3.0929,3.0915,3.0914,3.0923,3.0925,3.0925,3.0925,3.0808,3.0911,3.091,3.0909,3.0909,3.0909,3.0708,3.0734,3.075,3.0778,3.0791,3.0809,3.0833,3.0839,3.0864,3.0892,3.0888,3.0922,3.0938,3.097,3.0981,3.1008,3.0993,3.1007,3.101,3.1014,3.1017,3.0922,3.1012,3.1012,3.1012,3.1011,3.1011,0,3.0795,3.0805,3.0831,3.0857,3.088,3.0866,3.0886,3.0905,3.0936,3.0952,3.0975,3.1011,3.1039,3.1046,3.1073,3.1093,3.1088,3.1101,3.1099,3.1101,3.1029,3.1018,3.1105,3.1105,3.1105,3.1105,3.1105,3.1105,3.0842,3.0885,3.0886,3.0936,3.0945,3.0979,3.0992,3.1008,3.1021,3.1061,3.1085,3.109,3.1103,3.1131,3.1157,3.1158,3.1169,3.1184,3.1183,3.1115,3.1106,3.1097,3.1086,3.1186,3.1186,3.1253,3.1253,3.1254]},{"header":{"parameterUnit":"m.s-1","parameterCategory":1,"la1":30.2991,"la2":30.254,"lo1":-89.0895,"lo2":-89.0444,"dy":0.0017,"dx":0.0017,"nx":28,"ny":28,"refTime":"2023-10-14T09:00:00:Z","depth":0,"parameterNumber":3,"parameterNumberName":"V-component_of_WINDS"},"data":[0,0,0,0,0,0,0,0,0,0,0,0,0,0,0,0,0,0,0,0,0,0,0,0,0,0,0,0,0,0,0,0,0,0,0,0,0,0,0,0,0,0,0,0,0,0,0,0,0,0,0,0,0,0,0,0,0,0,-6.499,-6.4993,0,-6.5204,-6.5207,-6.5209,-6.5156,-6.5152,-6.5148,-6.5144,-6.536,-6.537,-6.5379,0,0,0,0,0,0,0,0,0,0,0,0,0,-6.4534,-6.4543,-6.499,-6.4993,-6.4995,-6.5204,-6.5207,-6.521,-6.5157,-6.5152,-6.5147,-6.5142,-6.5357,-6.5369,-6.538,0,0,0,0,0,0,0,0,0,0,0,0,0,-6.4739,-6.4546,-6.499,-6.4994,-6.4997,-6.5203,-6.5207,-6.521,-6.5158,-6.5152,-6.5146,-6.514,-6.5353,-6.5367,-6.5382,-6.5595,0,0,-6.5426,-6.5432,0,0,0,0,0,0,0,0,-6.4727,-6.4755,-6.4991,-6.4994,-6.4998,-6.5147,-6.5125,-6.5339,-6.516,-6.5097,-6.5144,-6.5137,-6.5294,-6.5313,-6.5367,-6.5605,-6.5615,-6.5427,-6.5436,-6.5442,-6.5446,0,0,0,0,0,0,0,-6.4713,-6.4746,-6.5075,-6.4994,-6.4999,-6.4985,-6.5008,-6.5166,-6.5228,-6.5102,-6.5099,-6.5125,-6.5295,-6.5353,-6.5372,-6.5618,-6.5427,-6.5439,-6.5448,-6.5454,-6.6044,-6.6051,0,0,0,0,0,0,-6.4696,-6.4734,-6.5068,-6.5081,-6.4844,-6.4999,-6.5023,-6.5105,-6.5226,-6.5238,-6.513,-6.5122,-6.5332,-6.5355,-6.5379,-6.5639,-6.5442,-6.5455,-6.5464,-6.6037,-6.6045,-6.6053,0,0,0,0,0,0,-6.4687,-6.4727,-6.5059,-6.4907,-6.4948,-6.5013,-6.5106,-6.5113,-6.5171,-6.5247,-6.5258,-6.5178,-6.5328,-6.5359,-6.5543,-6.5645,-6.5462,-6.5475,-6.6029,-6.604,-6.6049,-6.6159,0,0,0,0,0,0,-6.4674,-6.4724,-6.4806,-6.4909,-6.4957,-6.522,-6.5112,-6.5122,-6.5197,-6.5188,-6.5295,-6.5307,-6.5325,-6.5521,-6.5557,-6.5662,-6.5486,-6.602,-6.6033,-6.6046,-6.6146,-6.6172,-6.6193,0,0,0,0,0,-6.4658,-6.4827,-6.481,-6.4851,-6.5061,-6.5226,-6.5253,-6.5271,-6.5205,-6.5288,-6.5337,-6.5304,-6.5628,-6.5541,-6.558,-6.5691,-6.6013,-6.603,-6.6045,-6.6136,-6.6167,-6.6193,0,0,0,0,0,0,-6.4733,-6.4841,-6.4823,-6.5031,-6.512,-6.5217,-6.5322,-6.5303,-6.5412,-6.5399,-6.5416,-6.5441,-6.5629,-6.5678,-6.5579,-6.5905,-6.5811,-6.5835,-6.5866,-6.5896,-6.592,-6.5904,-6.5498,0,0,0,0,0,-6.4774,-6.4899,-6.4986,-6.5161,-6.5207,-6.5257,-6.533,-6.5336,-6.5429,-6.5466,-6.5528,-6.5618,-6.5741,-6.5821,-6.5937,-6.6152,-6.6176,-6.6248,-6.6272,-6.6291,-6.6312,-6.6431,-6.6465,-6.6105,-6.6105,-6.6104,0,0,-6.4859,-6.4933,-6.5012,-6.5178,-6.5248,-6.5378,-6.5289,-6.543,-6.5526,-6.5487,-6.5665,-6.5714,-6.5816,-6.6017,-6.6108,-6.6063,-6.6417,-6.6311,-6.6325,-6.6337,-6.6451,-6.6485,-6.6515,-6.6116,-6.6114,-6.6112,0,0,-6.5081,-6.515,-6.5304,-6.5376,-6.5483,-6.5516,-6.5553,-6.5654,-6.5685,-6.5864,-6.5838,-6.5952,-6.6162,-6.6237,-6.6302,-6.6554,-6.6528,-6.6591,-6.6715,-6.6831,-6.6859,-6.6884,-6.6976,-6.7008,-6.6612,-6.6612,-6.6612,0,-6.5174,-6.5369,-6.5385,-6.553,-6.5604,-6.5575,-6.5732,-6.58,-6.594,-6.5992,-6.594,-6.6204,-6.627,-6.6489,-6.6551,-6.6604,-6.6647,-6.658,-6.6854,-6.6879,-6.6903,-6.6991,-6.7025,-6.6619,-6.6618,-6.6618,-6.6617,0,-6.5478,-6.5614,-6.5726,-6.5863,-6.595,-6.6099,-6.6138,-6.6224,-6.6223,-6.6261,-6.6444,-6.6523,-6.6656,-6.6708,-6.6707,-6.6928,-6.6897,-6.6849,-6.6755,-6.6944,-6.7027,-6.706,-6.6629,-6.6627,-6.6625,-6.6623,0,0,-6.5754,-6.5899,-6.594,-6.6003,-6.6119,-6.6225,-6.6373,-6.6504,-6.6578,-6.6675,-6.68,-6.6979,-6.6937,-6.7011,-6.7019,-6.712,-6.7317,-6.706,-6.7063,-6.7107,-6.7566,-6.7602,-6.7641,-6.73,-6.7306,-6.7311,-6.7558,0,-6.5988,-6.6251,-6.627,-6.6507,-6.6633,-6.6608,-6.6737,-6.6823,-6.6862,-6.6975,-6.7017,-6.7145,-6.7078,-6.7123,-6.7222,-6.7272,-6.741,-6.7254,-6.7417,-6.7422,-6.7394,-6.7684,-6.7723,-6.7952,-6.759,-6.7596,-6.76,0,-6.6297,-6.6405,-6.6655,-6.6755,-6.6809,-6.6925,-6.7048,-6.7155,-6.7252,-6.7273,-6.7357,-6.7351,-6.7503,-6.7404,-6.7614,-6.7508,-6.7575,-6.761,-6.7619,-6.7636,-6.7524,-6.771,-6.8025,-6.8061,-6.765,-6.7646,-6.7643,0,-6.6475,-6.6683,-6.686,-6.6914,-6.7035,-6.7118,-6.7171,-6.7262,-6.734,-6.7447,-6.7498,-6.762,-6.7688,-6.7783,-6.781,-6.7735,-6.8021,-6.7922,-6.8044,-6.8043,-6.8106,-6.8102,-6.8438,-6.8147,-6.8146,-6.8146,-6.8145,0,-6.6736,-6.689,-6.6942,-6.7051,-6.7224,-6.7244,-6.7414,-6.7463,-6.7544,-6.7662,-6.7646,-6.7757,-6.7786,-6.7902,-6.7924,-6.8096,-6.8126,-6.8148,-6.8152,-6.8151,-6.8148,-6.8196,-6.8182,-6.8155,-6.8153,-6.8151,-6.8149,0,-6.6965,-6.7006,-6.7198,-6.7297,-6.7325,-6.7448,-6.7533,-6.7638,-6.7675,-6.7825,-6.7861,-6.792,-6.8056,-6.8092,-6.8255,-6.8269,-6.8473,-6.8461,-6.8441,-6.8441,-6.8561,-6.855,-6.8941,-6.8994,-6.8666,-6.8669,-6.8672,0,-6.7129,-6.7248,-6.736,-6.7439,-6.7497,-6.7623,-6.7704,-6.7728,-6.7812,-6.7932,-6.8023,-6.8157,-6.8267,-6.8485,-6.8542,-6.8667,-6.8659,-6.8787,-6.8678,-6.8673,-6.8663,-6.8657,-6.867,-6.8809,-6.8812,-6.8815,-6.8817,0,-6.7418,-6.7432,-6.7549,-6.7674,-6.7771,-6.787,-6.7965,-6.803,-6.8068,-6.8163,-6.8303,-6.8388,-6.8555,-6.8689,-6.8815,-6.887,-6.8851,-6.8851,-6.8886,-6.8887,-6.8871,-6.8883,-6.85,-6.8843,-6.884,-6.8838,-6.8837,-6.8836,-6.7621,-6.7726,-6.7822,-6.7953,-6.8027,-6.8117,-6.8221,-6.8272,-6.8389,-6.8528,-6.8535,-6.8688,-6.8782,-6.8949,-6.9011,-6.9131,-6.9092,-6.9142,-6.9155,-6.9168,-6.9179,-6.8851,-6.9153,-6.9153,-6.9152,-6.9151,-6.9151,0,-6.791,-6.7971,-6.8091,-6.8225,-6.8329,-6.8302,-6.8406,-6.8494,-6.8629,-6.8719,-6.8827,-6.8989,-6.9119,-6.9187,-6.9316,-6.9399,-6.9394,-6.9432,-6.9427,-6.9441,-6.9205,-6.9163,-6.9435,-6.9434,-6.9434,-6.9434,-6.9434,-6.9434,-6.8073,-6.825,-6.8276,-6.8489,-6.8549,-6.8699,-6.8761,-6.8844,-6.8916,-6.9097,-6.9206,-6.9249,-6.9331,-6.9466,-6.9585,-6.9601,-6.965,-6.9695,-6.9706,-6.9486,-6.9457,-6.9429,-6.939,-6.9704,-6.9705,-6.9932,-6.9934,-6.9936]}]]